THOR ABLESTAR DEB, 254

Orbit data source: Space-Track

THOR ABLESTAR DEB, 254 is space debris in LEO originally from a launch on Thu, 29 Jun 1961 UTC launched from the Air Force Eastern Test Range (AFETR). Debris objects in space refer to the collection of defunct objects orbiting the Earth. Examples of debris include non-operational satellites, rocket bodies, and fragments generated from explosions, collisions, or faulty payload assembly.

Loading next visibility...
THOR ABLESTAR DEB details
Identifier
254, 1961-015CF
Orbit
LEO
Last TLE update17 hours ago
Origin
Flag of USUSAF SSD (US)
ManufacturerUnknown
MissionSpacecraft
Bus & MotorUnknown
MassUnknown
Launch date (UTC)
1961-06-29 (64 years ago)
Launch vehicleUnknown
Launch site
Air Force Eastern Test Range (AFETR)
Object type
Payload
Rocket body
Debris
Shape & HBRUnknown
Radar Cross SectionSmall (<0.1 m²)

Expand to show TLE details & history

TLE from 17 hours ago
0 THOR ABLESTAR DEB
1 00254U 61015CF  25013.63487378  .00002268  00000-0  60154-3 0  9998
2 00254  66.7727 241.6646 0058840 117.7635 242.9458 14.49518545298281
Epoch: 2025-01-13T15:14Z
Definitive object data (Epoch: 2025-01-13T15:14:13.094Z)
Latitude0.00004°
Longitude-100.24304°
Altitude748.566 km
Speed7.471 km/s
True Right ascension16h 06m 39s
True Declination0° 00' 00"
Sunlit
Object was in daylight at TLE epoch
Visualization TLE readout
Latitude-3.49986°
Longitude79.30234°
Altitude712.962 km
Speed7.508 km/s
Apparent Right ascension01h 30m 40s
Apparent Declination-30° 24' 35"
Sunlit
Object is in full shadow
Visualization observer readout
Local Sidereal Time09:13:55
Azimuth259.258° W
Elevation-37.792°
Doppler factor1
Orbital elements
Apogee altitude767.371 km
Perigee altitude683.775 km
Semi-major axis7,103.71 km
Eccentricity0.005884
Inclination66.7727°
RAAN241.6646°
Arg. of periapsis117.7635°
True anomaly242.34734°
Mean anomaly242.9458°
Eccentric anomaly242.64637°
Mean motion3.62506 °/min
BSTAR0.00060154
Orbital period99.31 mins
Loading maneuver chart data...

THOR ABLESTAR DEB Visibility forecast

Observer location: undefined°, undefined

Span
Click to sort rows by Start time (UTC) header in descending order
Start Az.
Max El. time (UTC)
Max El. Az.
Max El.
End time (UTC)
End Az.
8 mins2025-01-14 16:12:07.379Z186.78° SSW2025-01-14 16:16:07.379Z116.465° SE38.212°2025-01-14 16:20:07.379Z41.745° NE
6 mins2025-01-14 17:56:07.379Z275.822° WNW2025-01-14 17:58:07.379Z305.485° NW19.796°2025-01-14 18:02:07.379Z0.686° NNE
7 mins2025-01-15 00:54:07.379Z359.489° N2025-01-15 00:57:07.379Z53.411° ENE27.642°2025-01-15 01:01:07.379Z114.301° SE
7 mins2025-01-15 02:36:07.379Z299.887° NW2025-01-15 02:39:07.379Z247.539° W26.235°2025-01-15 02:43:07.379Z190.389° SSW
|